TimeCST,TemperatureF,Dew PointF,Humidity,Sea Level PressureIn,VisibilityMPH,Wind Direction,Wind SpeedMPH,Gust SpeedMPH,PrecipitationIn,Events,Conditions,WindDirDegrees,DateUTC
12:15 AM,44.6,39.2,81,30.06,10.0,North,6.9,-,N/A,,Overcast,350,2012-11-06 06:15:00
12:35 AM,44.6,39.2,81,30.07,10.0,NNW,6.9,-,N/A,,Overcast,340,2012-11-06 06:35:00
1:15 AM,44.6,39.2,81,30.06,7.0,North,6.9,-,N/A,,Overcast,360,2012-11-06 07:15:00
1:55 AM,44.6,39.2,81,30.07,7.0,North,5.8,-,N/A,,Overcast,360,2012-11-06 07:55:00
2:15 AM,44.6,37.4,76,30.06,9.0,North,3.5,-,N/A,,Overcast,350,2012-11-06 08:15:00
2:35 AM,44.6,37.4,76,30.07,10.0,North,5.8,-,N/A,,Overcast,360,2012-11-06 08:35:00
2:56 AM,44.6,37.4,76,30.06,9.0,NNE,4.6,-,N/A,,Overcast,20,2012-11-06 08:56:00
3:15 AM,44.6,37.4,76,30.06,10.0,North,4.6,-,N/A,,Overcast,350,2012-11-06 09:15:00
3:35 AM,44.6,37.4,76,30.05,8.0,NNW,4.6,-,N/A,,Overcast,340,2012-11-06 09:35:00
4:15 AM,44.6,37.4,76,30.06,10.0,NNW,4.6,-,N/A,,Overcast,340,2012-11-06 10:15:00
4:35 AM,44.6,35.6,71,30.07,10.0,North,3.5,-,N/A,,Overcast,350,2012-11-06 10:35:00
4:55 AM,42.8,35.6,76,30.07,10.0,North,5.8,-,N/A,,Overcast,10,2012-11-06 10:55:00
5:16 AM,42.8,35.6,76,30.05,10.0,North,4.6,-,N/A,,Overcast,360,2012-11-06 11:16:00
5:35 AM,42.8,35.6,76,30.06,10.0,Calm,Calm,-,N/A,,Overcast,0,2012-11-06 11:35:00
5:55 AM,42.8,35.6,76,30.06,10.0,Calm,Calm,-,N/A,,Overcast,0,2012-11-06 11:55:00
6:15 AM,42.8,35.6,76,30.05,10.0,West,3.5,-,N/A,,Overcast,270,2012-11-06 12:15:00
6:35 AM,42.8,35.6,76,30.07,10.0,NW,4.6,-,N/A,,Overcast,310,2012-11-06 12:35:00
7:15 AM,42.8,35.6,76,30.08,10.0,NW,4.6,-,N/A,,Overcast,310,2012-11-06 13:15:00
7:35 AM,44.6,35.6,71,30.09,10.0,WNW,3.5,-,N/A,,Overcast,290,2012-11-06 13:35:00
7:55 AM,44.6,35.6,71,30.09,10.0,NW,3.5,-,N/A,,Overcast,310,2012-11-06 13:55:00
8:35 AM,44.6,35.6,71,30.10,10.0,West,4.6,-,N/A,,Overcast,270,2012-11-06 14:35:00
8:55 AM,44.6,37.4,76,30.10,9.0,WNW,4.6,-,N/A,,Overcast,300,2012-11-06 14:55:00
9:15 AM,44.6,37.4,76,30.09,9.0,WSW,4.6,-,N/A,,Overcast,240,2012-11-06 15:15:00
9:35 AM,46.4,37.4,71,30.08,8.0,WSW,5.8,-,N/A,,Mostly Cloudy,240,2012-11-06 15:35:00
9:55 AM,46.4,37.4,71,30.08,10.0,SW,8.1,-,N/A,,Clear,220,2012-11-06 15:55:00
10:15 AM,48.2,37.4,66,30.09,9.0,West,5.8,-,N/A,,Clear,260,2012-11-06 16:15:00
10:55 AM,51.8,37.4,58,30.08,10.0,West,4.6,-,N/A,,Clear,280,2012-11-06 16:55:00
11:15 AM,51.8,37.4,58,30.07,10.0,WSW,8.1,-,N/A,,Clear,240,2012-11-06 17:15:00
11:35 AM,53.6,39.2,58,30.07,10.0,WNW,10.4,-,N/A,,Clear,300,2012-11-06 17:35:00
11:56 AM,53.6,37.4,54,30.06,10.0,West,10.4,-,N/A,,Clear,260,2012-11-06 17:56:00
12:15 PM,53.6,39.2,58,30.04,10.0,West,8.1,-,N/A,,Clear,260,2012-11-06 18:15:00
12:35 PM,55.4,39.2,54,30.03,10.0,West,9.2,-,N/A,,Clear,270,2012-11-06 18:35:00
1:15 PM,57.2,37.4,48,30.03,10.0,WNW,8.1,-,N/A,,Clear,300,2012-11-06 19:15:00
1:35 PM,57.2,37.4,48,30.03,10.0,WNW,13.8,-,N/A,,Clear,290,2012-11-06 19:35:00
1:55 PM,59.0,39.2,48,30.02,10.0,West,11.5,-,N/A,,Clear,280,2012-11-06 19:55:00
2:16 PM,59.0,37.4,45,30.02,10.0,NNW,13.8,20.7,N/A,,Clear,330,2012-11-06 20:16:00
2:55 PM,57.2,37.4,48,30.02,10.0,WNW,13.8,-,N/A,,Clear,300,2012-11-06 20:55:00
3:16 PM,57.2,39.2,51,30.02,10.0,WNW,12.7,16.1,N/A,,Clear,300,2012-11-06 21:16:00
3:35 PM,57.2,39.2,51,30.01,10.0,West,11.5,-,N/A,,Clear,270,2012-11-06 21:35:00
3:55 PM,55.4,39.2,54,30.01,10.0,West,10.4,-,N/A,,Clear,280,2012-11-06 21:55:00
4:35 PM,55.4,39.2,54,30.02,10.0,WNW,5.8,-,N/A,,Clear,290,2012-11-06 22:35:00
4:55 PM,55.4,37.4,51,30.02,10.0,NW,3.5,-,N/A,,Clear,310,2012-11-06 22:55:00
5:35 PM,53.6,37.4,54,30.03,10.0,West,3.5,-,N/A,,Clear,280,2012-11-06 23:35:00
5:55 PM,50.0,37.4,62,30.03,10.0,West,3.5,-,N/A,,Clear,260,2012-11-06 23:55:00
6:15 PM,48.2,37.4,66,30.03,10.0,SW,4.6,-,N/A,,Clear,230,2012-11-07 00:15:00
6:55 PM,46.4,37.4,71,30.04,10.0,West,3.5,-,N/A,,Clear,270,2012-11-07 00:55:00
7:15 PM,46.4,37.4,71,30.05,10.0,WNW,3.5,-,N/A,,Clear,300,2012-11-07 01:15:00
7:35 PM,46.4,37.4,71,30.05,10.0,WNW,4.6,-,N/A,,Clear,300,2012-11-07 01:35:00
7:56 PM,48.2,37.4,66,30.05,10.0,NW,6.9,-,N/A,,Clear,310,2012-11-07 01:56:00
8:35 PM,50.0,35.6,58,30.07,10.0,NNW,4.6,-,N/A,,Clear,330,2012-11-07 02:35:00
8:56 PM,50.0,33.8,54,30.07,10.0,NNW,3.5,-,N/A,,Clear,330,2012-11-07 02:56:00
9:15 PM,46.4,33.8,62,30.07,10.0,Calm,Calm,-,N/A,,Clear,0,2012-11-07 03:15:00
9:35 PM,46.4,33.8,62,30.07,10.0,NW,3.5,-,N/A,,Clear,310,2012-11-07 03:35:00
9:55 PM,44.6,32.0,61,30.07,10.0,Calm,Calm,-,N/A,,Clear,0,2012-11-07 03:55:00
10:16 PM,44.6,30.2,57,30.07,10.0,NW,3.5,-,N/A,,Clear,320,2012-11-07 04:16:00
10:55 PM,39.2,28.4,65,30.07,10.0,Calm,Calm,-,N/A,,Clear,0,2012-11-07 04:55:00
11:35 PM,39.2,28.4,65,30.07,10.0,Calm,Calm,-,N/A,,Clear,0,2012-11-07 05:35:00